Regional Weather Roundup
Issued by NWS

Home | Current Version | Previous Version | Graphics & Text | Print | Product List | Glossary On
Versions: 1 2 3 4 5 6 7 8 9 10 11 12 13 14 15 16 17 18 19 20 21 22 23 24 25 26 27 28 29 30 31 32 33 34 35 36 37 38 39 40 41 42 43 44 45 46 47 48 49 50
311
ASUS44 KJAN 061103
RWRMS

MISSISSIPPI HOURLY WEATHER ROUNDUP
NATIONAL WEATHER SERVICE JACKSON MS
500 AM CST FRI MAR 06 2015

NOTE: "FAIR: INDICATES FEW OR NO CLOUDS BELOW 12,000 FEET WITH NO
SIGNIFICANT WEATHER AND/OR OBSTRUCTIONS TO VISIBILITY.

MSZ001>002-007>008-010>013-018>021-025>028-034>036-061200-
NORTHWEST MISSISSIPPI

CITY           SKY/WX    TMP DP  RH WIND       PRES   REMARKS
CLARKSDALE       N/A     21  18  86 CALM      30.61R
CLEVELAND      FAIR      23  17  77 NE6       30.59R WCI  16
GREENWOOD      CLEAR     20  13  74 N7        30.58R WCI  11
GREENVILLE     CLEAR     24  16  71 MISG      30.59R
OLIVE BRANCH   CLEAR     14  14 100 CALM      30.58R
OXFORD         FAIR      14  10  85 CALM      30.57R
TUNICA         SUNNY     21  16  79 NE3       30.61R
$$

MSZ003>006-009-014>017-022>024-029>033-037>039-061200-
NORTHEAST MISSISSIPPI

CITY           SKY/WX    TMP DP  RH WIND       PRES   REMARKS
COLUMBUS AFB   CLEAR     20  13  73 N7        30.54R WCI  11
CORINTH        FAIR      18   9  68 NE5       30.56R WCI  11
GOLDN TRIANGLE CLEAR     21  12  68 N9        30.52R WCI  11
STARKVILLE     FAIR      21  18  86 CALM      30.54R
TUPELO         CLEAR     19  10  68 NE12      30.56R WCI   7
$$

MSZ040-058-061200-
CENTRAL MISSISSIPPI

CITY           SKY/WX    TMP DP  RH WIND       PRES   REMARKS
JACKSON INTL   PTCLDY    24  17  74 N13       30.52R WCI  12
JACKSON HAWKNS CLEAR     23  14  68 N7        30.53R WCI  15
MERIDIAN KEY   PTCLDY    22  16  78 N10       30.49R WCI  11
MERIDIAN NAS   PTCLDY    21  16  81 N8        30.50R WCI  11
VICKSBURG      CLEAR     25  15  66 N12       30.57R WCI  14
$$

MSZ059>079-061200-
SOUTH MISSISSIPPI

CITY           SKY/WX    TMP DP  RH WIND       PRES   REMARKS
BROOKHAVEN       N/A     23  19  86 CALM      30.50R
HATTIESBURG    PTCLDY    27  17  66 N8        30.47R WCI  19
MCCOMB         PTCLDY    24  15  68 N9        30.48R WCI  14
NATCHEZ        CLEAR     25  10  54 N9        30.52S WCI  15
PINE BELT      PTCLDY    25  16  68 N10       30.47R WCI  15
$$

MSZ080>082-061200-
COASTAL MISSISSIPPI

CITY           SKY/WX    TMP DP  RH WIND       PRES   REMARKS
BILOXI         PTCLDY    30  19  65 N16G23    30.41R WCI  18
PASCAGOULA     PTCLDY    29  19  66 N14       30.40R WCI  18
GULFPORT       PTCLDY    29  17  61 N12       30.41R WCI  19
$$



USA.gov is the U.S. government's official web portal to all federal, state and local government web resources and services.